This demonstration page uses our WeatherBlox Daily Observations layout. Learn more.

Left ArrowRight Arrow

31.31129, -92.44514

Hourly Observations for August 27, 2018

Temp ( °F °C ) Dew Point ( °F °C ) Humidity (%) Winds ( mph kmh ) Pressure ( in mb ) Visibility ( mi km ) Precip ( " mm )
12:53 am 00:53 Clear 77 25 73 22.8 88 88 SE 7 11 30.04 1017 10 16 0.00 0.00
1:53 am 01:53 Clear 75 23.9 71 21.7 88 88 Calm 30.03 1017 10 16 0.00 0.00
2:53 am 02:53 Clear 75 23.9 72 22.2 90 90 SE 6 9 30.01 1016 9 14 0.00 0.00
3:53 am 03:53 Clear 75 23.9 73 22.8 94 94 SE 3 6 30.02 1017 10 16 0.00 0.00
4:53 am 04:53 Clear 76 24.4 73 22.8 91 91 SE 6 9 30.02 1017 10 16 0.00 0.00
5:53 am 05:53 Clear 75 23.9 72 22.2 90 90 SSE 7 11 30.03 1017 10 16 0.00 0.00
6:53 am 06:53 Sunny 76 24.4 73 22.8 91 91 ESE 6 9 30.05 1018 9 14 0.00 0.00
7:53 am 07:53 Sunny 79 26.1 74 23.3 85 85 SE 8 13 30.05 1018 10 16 0.00 0.00
8:53 am 08:53 Sunny 83 28.3 75 23.9 77 77 SE 9 15 30.06 1018 10 16 0.00 0.00
9:53 am 09:53 Sunny 87 30.6 75 23.9 67 67 SSE 10 17 30.06 1018 10 16 0.00 0.00
10:53 am 10:53 Mostly Cloudy 88 31.1 73 22.8 61 61 S 7 11 30.05 1018 10 16 0.00 0.00
11:53 am 11:53 Mostly Sunny 90 32.2 72 22.2 56 56 SSE 7 11 30.04 1017 10 16 0.00 0.00
12:53 pm 12:53 Mostly Sunny 94 34.4 72 22.2 49 49 VRB 5 7 30.01 1016 10 16 0.00 0.00
1:53 pm 13:53 Cloudy 87 30.6 71 21.7 59 59 SSE 13 20 30.01 1016 10 16 0.00 0.03
2:53 pm 14:53 Mostly Sunny 94 34.4 71 21.7 48 48 S 6 9 29.97 1015 10 16 0.00 0.00
3:49 pm 15:49 Partly Cloudy with Thunderstorms 99 37 72 22 42 42 S 10 17 29.97 1015 10 16 0.00 0.00
3:53 pm 15:53 Partly Cloudy with Thunderstorms 95 35 71 21.7 46 46 S 21 33 29.97 1015 10 16 0.00 0.00
4:29 pm 16:29 Mostly Cloudy with Nearby Thunderstorms 78 25.6 72 22.2 82 82 SW 7 11 29.97 1015 10 16 0.04 1.02
4:53 pm 16:53 Partly Cloudy with Nearby Thunderstorms 80 26.7 73 22.8 79 79 N 12 19 29.98 1015 10 16 0.04 1.02
5:10 pm 17:10 Mostly Sunny 79 26.1 73 22.8 82 82 N 7 11 29.97 1015 10 16 0.00 0.00
5:53 pm 17:53 Sunny 80 26.7 73 22.8 79 79 ENE 3 6 29.96 1015 10 16 0.00 0.00
6:53 pm 18:53 Sunny 80 26.7 75 23.9 85 85 WSW 3 6 29.96 1015 10 16 0.00 0.00
7:53 pm 19:53 Mostly Cloudy 80 26.7 75 23.9 85 85 Calm 29.98 1015 10 16 0.00 0.00
8:53 pm 20:53 Mostly Cloudy 81 27.2 73 22.8 77 77 SE 10 17 29.98 1015 10 16 0.00 0.00
9:53 pm 21:53 Clear 80 26.7 71 21.7 74 74 ESE 8 13 29.98 1015 10 16 0.00 0.00
10:53 pm 22:53 Clear 78 25.6 72 22.2 82 82 SE 9 15 30.00 1016 10 16 0.00 0.00
11:53 pm 23:53 Clear 76 24.4 72 22.2 88 88 SSE 7 11 29.99 1016 10 16 0.00 0.00

Powered by AerisWeather